Regional Weather Roundup
Issued by NWS Kansas City/Pleasant Hill, MO

Home | Current Version | Previous Version | Text Only | Print | Product List | Glossary On
Versions: 1 2 3 4 5 6 7 8 9 10 11 12 13 14 15 16 17 18 19 20 21 22 23 24 25 26 27 28 29 30 31 32 33 34 35 36 37 38 39 40 41 42 43 44 45 46 47 48 49 50
000
ASUS43 KEAX 302210
RWREAX

WEATHER ROUNDUP FOR EASTERN KANSAS AND NORTHWEST MISSOURI
NATIONAL WEATHER SERVICE KANSAS CITY/PLEASANT HILL MO
500 PM CDT THU JUL 30 2015

KSZ040-057-103>105-MOZ028-029-037-043-302300-
...KANSAS CITY METROPOLITAN AREA...

CITY           SKY/WX    TMP DP  RH WIND       PRES   REMARKS
K.C. INTL      PTSUNNY   83  63  50 W5        30.16F
K.C. DOWNTOWN  PTSUNNY   88  56  33 SW5       30.14F
LEES SUMMIT    PTSUNNY   85  61  44 W5        30.17F
OLATHE - IXD   PTSUNNY   86  53  32 VRB3      30.17F
OLATHE - OJC   PTSUNNY   83  58  42 CALM      30.16F
LAWRENCE       PTSUNNY   85  62  46 E5        30.16F

$$

MOZ001>008-011>017-020>025-030>033-038>040-044>046-053-054-302300-
...NORTHERN AND CENTRAL MISSOURI...

CITY           SKY/WX    TMP DP  RH WIND       PRES   REMARKS
ST. JOSEPH     SUNNY     85  62  46 SW5       30.15F
MOSBY          PTCLDY    86  59  39 S3        30.15F
WARRENSBURG    PTSUNNY   82  64  54 W3        30.15F
WHITEMAN AFB   NOT AVBL
CLINTON        PTSUNNY   86  61  42 CALM      30.16F
SEDALIA        PTSUNNY   88  55  32 CALM      30.17F
WARSAW         NOT AVBL
CHILLICOTHE      N/A     88  66  48 VRB6      30.16F HX  90
KIRKSVILLE     SUNNY     87  62  43 W10       30.15F

$$

MOZ041-047>049-056>058-063>065-088>090-097-302300-
...EASTERN AND SOUTHERN MISSOURI...

CITY           SKY/WX    TMP DP  RH WIND       PRES   REMARKS
ST. LOUIS INTL PTSUNNY   90  60  36 NW8       30.12F
SPIRIT OF STL  MOSUNNY   88  62  41 W5        30.11F
COLUMBIA       CLOUDY    86  62  44 W5        30.15F
JEFFERSON CITY CLOUDY    88  57  34 E3        30.13F
ROLLA          CLOUDY    84  58  40 NE3       30.15F
OSAGE BEACH    CLOUDY    82  64  54 CALM      30.16F
SPRINGFIELD    PTSUNNY   85  57  38 N8        30.15F
BRANSON        PTSUNNY   84  61  45 E5        30.17F
JOPLIN         PTSUNNY   87  61  41 E8        30.14F
WEST PLAINS    MOSUNNY   86  58  38 NE3       30.17S

$$

IAZ060-094-KSZ022-034>040-054-083-096-NEZ052-066-093-302300-
...KANSAS...SOUTHEAST NEBRASKA AND IOWA...

CITY           SKY/WX    TMP DP  RH WIND       PRES   REMARKS
TOPEKA         PTSUNNY   86  59  39 E3        30.15F
MANHATTAN      MOSUNNY   87  61  41 SE6       30.14F
EMPORIA        MOSUNNY   83  61  47 SE6       30.16F
CHANUTE        CLOUDY    84  67  56 N5        30.15F
WICHITA        MOSUNNY   84  69  60 SE6       30.15F
OMAHA          MOSUNNY   91  57  31 W6G16     30.13F
LINCOLN        SUNNY     90  57  32 S9        30.15F
FALLS CITY     SUNNY     87  65  47 S9        30.14F
LAMONI         SUNNY     86  64  47 W9        30.16F
DES MOINES     MOSUNNY   88  56  33 W15G21    30.11F

$$




USA.gov is the U.S. government's official web portal to all federal, state and local government web resources and services.